Tracking 19177 objects as of 25-May-2018
HD Live streaming from Space Station
objects crossing your sky now

LEMUR 2 TALLHAMN-ATC

Track LEMUR 2 TALLHAMN-ATC now!
10-day predictions
LEMUR 2 TALLHAMN-ATC is classified as:


NORAD ID: 43167
Int'l Code: 2018-010E
Perigee: 505.7 km
Apogee: 540.8 km
Inclination: 82.9 °
Period: 94.9 minutes
Semi major axis: 6894 km
RCS: Unknown
Launch date: January 21, 2018
Source: United States (US)
Launch site: Rocket Lab Launch Complex (RLLC)
aabbcc
Your satellite tracking list
Your tracking list is empty




NASA's NSSDC Master Catalog

Two Line Element Set (TLE):
1 43167U 18010E   18144.63041556 +.00001119 +00000-0 +55077-4 0  9999
2 43167 082.9228 024.1491 0025451 174.3562 185.7964 15.16597793018721
Source of the keplerian elements: AFSPC